"Pseudo-MPEC" for ZTF01ZJ

Created 2018 Oct 13 14:18:29 UT using Find_Orb

Click here for an explanation of pseudo-MPECs

 
 Astrometry: 
     ZTF01ZJ  C2018 10 06.29562801 00 30.33 +23 15 05.8                UNEOCPI41
     ZTF01ZJ  C2018 10 06.29597501 00 34.19 +23 15 47.1                UNEOCPI41
     ZTF01ZJ  C2018 10 06.35967001 12 47.82 +25 16 04.7          17.99gUNEOCPI41
     ZTF01ZJ  C2018 10 06.36001601 12 51.75 +25 16 39.8          17.99gUNEOCPI41
     ZTF01ZJ  C2018 10 06.40613401 22 27.24 +26 31 49.1          17.24RUNEOCPI41
     ZTF01ZJ  C2018 10 06.40648101 22 31.68 +26 32 20.3          17.24RUNEOCPI41

Station data:
(I41) Palomar Mountain--ZTF  (N33.357340 W116.859780)  US/California. 1.2-m
   f/2.44 Oschin Schmidt + CCD.

Orbital elements:  ZTF01ZJ
   Perigee 2018 Oct 5.776032 +/- 0.00152 TT = 18:37:29 (JD 2458397.276032)
Epoch 2018 Oct  6.0 TT = JDT 2458397.5                        AutoNEOCP
M  77.28660 +/- 0.38                (J2000 equator)
n 345.07934801 +/- 0.746            Peri.  226.82222 +/- 0.06
a 43450.1080 +/- 62.6               Node   332.96481 +/- 0.028
e   0.7672263 +/- 0.000618          Incl.   34.09699 +/- 0.00057
P1502.23m/1.043d           H 33.4   G  0.15   U 12.5  
q 10114.0407 +/- 41.3    Q 76786.1752 +/- 84.4
From 6 observations 2018 Oct. 6 (2.7 hr); mean residual 0".74
Residuals in arcseconds: 
181006 I41  .45+  .62+    181006 I41  1.3+  .47+    181006 I41  .84+  .27+    
181006 I41  .46-  .63-    181006 I41  1.3-  .47-    181006 I41  .83-  .27-    

Ephemerides (geocentric):
Date (UTC) HH   RA              Dec         delta   r     elong  mag " sig PA
---- -- -- --  -------------   -----------  ------ ------ -----  --- ---- ---
2018 10 13 14  00 54 07.210   +23 56 49.22   76741 0.9982 163.2 17.8 3808  65
2018 10 13 15  01 05 57.503   +25 09 43.14   76673 0.9982 162.5 17.8 3829  66
2018 10 13 16  01 18 09.539   +26 19 44.09   75930 0.9982 161.5 17.8 3920  68
2018 10 13 17  01 30 58.000   +27 27 39.53   74502 0.9982 160.0 17.8 4091  69
2018 10 13 18  01 44 40.825   +28 34 05.87   72364 0.9981 158.1 17.8 4361  71
2018 10 13 19  01 59 41.596   +29 39 27.19   69483 0.9981 155.8 17.8 4763  73
2018 10 13 20  02 16 33.502   +30 43 48.85   65804 0.9980 152.9 17.8 5358  75
2018 10 13 21  02 36 06.550   +31 46 39.60   61255 0.9980 149.5 17.7 6258  77
2018 10 13 22  02 59 42.038   +32 46 03.77   55726 0.9979 145.3 17.6 7685  80
2018 10 13 23  03 29 44.883   +33 36 21.79   49060 0.9979 139.7 17.5 169'  85
2018 10 14 00  04 11 06.986   +34 00 14.13   41019 0.9978 131.9 17.3 251'  90
2018 10 14 01  05 15 29.804   +32 53 36.11   31229 0.9977 119.4 17.1 464'  99
2018 10 14 02  07 20 15.055   +24 24 46.79   19244 0.9976  92.2 17.0  24d 114
2018 10 14 03  13 56 11.564   -29 25 13.42   10231 0.9975  23.5 22??  51d 108
2018 10 14 04  20 27 02.263   -16 12 52.67   21333 0.9976 104.6 16.8 732'  60
2018 10 14 05  21 50 45.403   -03 05 58.85   32957 0.9977 127.6 17.0 340'  56
2018 10 14 06  22 31 43.937   +03 47 36.41   42432 0.9977 138.9 17.2 215'  56
2018 10 14 07  22 58 59.074   +08 16 39.33   50229 0.9978 146.0 17.4 9470  57
2018 10 14 08  23 19 47.996   +11 33 54.43   56696 0.9978 151.1 17.5 7574  58
2018 10 14 09  23 37 00.816   +14 09 36.43   62057 0.9979 154.9 17.6 6408  59
2018 10 14 10  23 52 00.837   +16 18 49.45   66458 0.9979 157.8 17.7 5644  60
2018 10 14 11  00 05 35.393   +18 10 02.42   70002 0.9979 160.0 17.7 5127  61
2018 10 14 12  00 18 14.580   +19 48 28.24   72759 0.9979 161.6 17.7 4775  62
2018 10 14 13  00 30 19.467   +21 17 32.68   74778 0.9979 162.7 17.8 4544  63
2018 10 14 14  00 42 06.233   +22 39 38.62   76093 0.9979 163.2 17.8 4408  64
2018 10 14 15  00 53 48.535   +23 56 29.83   76724 0.9979 163.3 17.8 4354  65
2018 10 14 16  01 05 39.079   +25 09 24.55   76681 0.9979 162.8 17.8 4377  66
2018 10 14 17  01 17 50.880   +26 19 23.51   75964 0.9979 161.9 17.8 4480  68
2018 10 14 18  01 30 38.546   +27 27 14.41   74561 0.9979 160.5 17.8 4673  69
2018 10 14 19  01 44 19.874   +28 33 33.80   72450 0.9978 158.8 17.8 4979  71
2018 10 14 20  01 59 18.194   +29 38 45.91   69597 0.9978 156.5 17.8 5435  73
2018 10 14 21  02 16 06.254   +30 42 56.39   65950 0.9977 153.8 17.8 6110  75
2018 10 14 22  02 35 33.266   +31 45 34.97   61434 0.9977 150.5 17.7 7129  77
2018 10 14 23  02 58 58.970   +32 44 49.07   55944 0.9976 146.3 17.6 8744  80
2018 10 15 00  03 28 44.931   +33 35 09.40   49324 0.9976 140.8 17.5 192'  84
2018 10 15 01  04 09 34.702   +33 59 55.07   41340 0.9975 133.2 17.3 285'  90
2018 10 15 02  05 12 43.984   +32 58 09.00   31624 0.9974 120.9 17.1 524'  99
2018 10 15 03  07 13 41.743   +25 02 37.61   19722 0.9973  94.8 16.9  27d 114
2018 10 15 04  13 29 43.898   -27 23 01.85   10148 0.9972  19.2 23??  59d 111
2018 10 15 05  20 21 46.499   -16 54 04.49   20859 0.9973 102.2 16.8 840'  60
2018 10 15 06  21 48 44.089   -03 23 14.34   32565 0.9974 126.1 17.0 386'  56
2018 10 15 07  22 30 31.598   +03 38 28.71   42110 0.9974 137.6 17.2 244'  56
2018 10 15 08  22 58 07.703   +08 11 09.99   49962 0.9975 144.9 17.4 179'  57
2018 10 15 09  23 19 08.020   +11 30 22.19   56474 0.9975 150.0 17.5 8556  58
2018 10 15 10  23 36 27.897   +14 07 14.11   61872 0.9976 153.9 17.6 7231  59
2018 10 15 11  23 51 32.638   +16 17 11.67   66307 0.9976 156.9 17.7 6364  60
2018 10 15 12  00 05 10.496   +18 08 54.08   69881 0.9976 159.3 17.7 5778  61
2018 10 15 13  00 17 52.034   +19 47 39.57   72665 0.9976 161.0 17.7 5379  62